Location: Bonea
(41.0667°N, 14.6167°E)
Time: 14:19:16
(UTC+00:00)

Daily predictions for brighter satellites

Satellite Brightness Start Highest point End
(mag) Time Altitude Azimuth Time Altitude Azimuth Time Altitude Azimuth
Terra 2.9 18:29:57 10° SE 18:33:50 27° ENE 18:37:45 10° NNE
Cosmos 1900 4.4 18:29:25 10° SSW 18:34:25 86° WNW 18:39:23 10° NNE
SJ-6B 3.6 18:34:09 10° S 18:37:34 48° W 18:40:58 10° NNW
ATLAS 5 CENTAUR R/B 3.6 18:35:33 10° WNW 18:39:35 30° WSW 18:44:23 10° S
Resurs 01 Rocket 3.8 18:41:18 10° SSW 18:44:58 26° W 18:48:40 10° NW
Cosmos 2058 2.8 18:41:06 10° N 18:44:59 82° W 18:48:51 10° S
SJ 16-02 1.5 18:41:05 10° NNW 18:45:19 70° WSW 18:49:31 10° S
ATLAS 2AS CENTAUR R/B 3.0 18:41:05 10° SW 18:48:05 77° NW 18:54:58 10° NNE
Cosmos 44 Rocket 4.3 18:44:58 10° SSE 18:49:06 26° ESE 18:53:20 10° NE
BREEZE-M DEB (TANK) 2.4 18:45:35 10° SW 18:52:53 74° SSE 18:55:37 10° ENE
SL-24 R/B 4.2 18:49:46 10° NNE 18:53:58 60° ESE 18:58:28 10° S
Cosmos 1656 3.9 18:48:57 10° NNW 18:54:28 73° WSW 19:00:01 10° SSE
IRAS Rocket 4.2 18:49:21 10° SSE 18:54:47 72° ENE 19:00:15 10° N
ISS -2.8 18:52:54 10° SSW 18:55:45 27° SE 18:58:38 10° ENE
ADEOS 4.2 18:51:59 10° SE 18:56:49 40° ENE 19:01:40 10° N
Cosmos 2082 Rocket 3.7 18:59:05 12° SE 19:01:43 16° E 19:05:05 10° ENE
Cosmos 1190 Rocket 4.2 18:58:53 10° NNW 19:04:08 76° WSW 19:09:19 10° SSE
Cosmos 2151 Rocket 3.5 19:00:06 10° S 19:04:24 66° E 19:08:45 10° NNE
Okean 2 Rocket 3.3 19:02:31 10° SSE 19:06:50 51° E 19:11:11 10° NNE
SL-4 R/B 2.7 19:04:37 10° NW 19:08:16 41° NNE 19:11:18 14° E
Cosmos 2251 Rocket 4.0 19:04:29 10° NNW 19:09:48 64° WSW 19:15:04 10° S
Timation 1 Rocket 4.4 19:08:27 10° S 19:14:16 57° ESE 19:20:09 10° NNE
Milstar 3 3.8 19:09:08 10° WSW 19:15:05 33° S 19:20:57 16° ESE
Feng Yun 1-1 Rocket 4.2 19:10:20 10° SSE 19:15:44 90° WSW 19:21:10 10° NNW
Cosmos 1536 Rocket 3.5 19:12:41 10° N 19:17:01 69° E 19:20:48 14° SSE
DELTA 2 R/B (1) 4.3 19:13:43 10° SSW 19:18:32 31° SSE 19:22:25 14° E
SOZ 4.0 19:15:49 10° NW 19:19:29 82° NE 19:20:34 28° ESE
CZ-4C R/B 1.5 19:15:59 10° SSW 19:19:46 55° ESE 19:24:28 10° NE
Cosmos 2228 4.4 19:19:25 17° E 19:20:09 18° E 19:22:57 10° NE
Cosmos 292 Rocket 4.1 19:15:40 10° N 19:20:18 48° ENE 19:23:17 20° SE
Cosmos 1725 Rocket 4.4 19:15:28 11° SSE 19:21:10 42° E 19:27:00 10° NNE
Okean O Rocket 2.3 19:20:14 20° SE 19:22:37 36° ENE 19:26:34 10° N
ERS-1 Rocket 3.0 19:19:29 10° SSE 19:24:29 84° WSW 19:29:32 10° NNW
Cosmos 1452 Rocket 3.8 19:20:51 10° S 19:25:47 45° ESE 19:30:46 10° NNE
Cosmos 1697 Rocket 2.7 19:20:36 10° NNW 19:26:13 69° ENE 19:30:08 20° SE
ATLAS 3B R/B 3.1 19:20:40 10° NNW 19:28:21 61° NE 19:33:32 20° SE
USA 186 2.6 19:28:18 23° ENE 19:28:24 23° ENE 19:30:37 10° NNE
Meteor 1-31 Rocket 4.1 19:27:42 10° SSW 19:30:52 33° W 19:34:04 10° NNW
Helios 1A Rocket 3.5 19:28:36 10° N 19:31:37 42° WNW 19:34:37 10° SW
Cosmos 332 Rocket 3.9 19:27:42 10° NNW 19:32:27 70° WSW 19:36:09 16° S
Cosmos 1331 Rocket 3.9 19:29:51 10° SSW 19:35:05 81° ESE 19:40:20 10° NNE
Okean-O 2.9 19:33:08 25° SE 19:35:22 48° ENE 19:39:36 10° N
Cosmos 2016 Rocket 4.1 19:35:03 15° SSE 19:40:14 55° E 19:46:18 10° NNE
Cosmos 968 Rocket 3.4 19:35:37 10° NNW 19:40:54 83° ENE 19:44:08 24° SSE
Cosmos 676 Rocket 4.5 19:36:14 10° NNW 19:41:20 57° WSW 19:45:30 15° S
Meteor 2-1 Rocket 4.4 19:35:54 10° SSW 19:41:38 76° W 19:47:16 10° N
Cosmos 2173 Rocket 4.0 19:36:28 10° S 19:42:35 83° W 19:48:48 10° N
Cosmos 1302 Rocket 4.4 19:41:10 24° SSE 19:43:38 39° ESE 19:48:25 10° NE
Cosmos 1892 Rocket 3.9 19:40:52 10° N 19:45:01 45° ENE 19:46:26 33° SE
Cosmos 1455 Rocket 3.1 19:42:58 24° SSE 19:45:29 59° E 19:49:50 10° NNE
NOSS 3-3 (A) 4.2 19:47:13 29° SE 19:48:04 31° ESE 19:52:56 10° NE
Cosmos 1816 Rocket 4.4 19:42:43 10° N 19:48:52 78° E 19:53:04 22° SSE
Cosmos 724 4.3 19:45:26 10° SSW 19:51:25 68° ESE 19:57:20 10° NE
Okean 1 Rocket 3.7 19:47:16 10° SSW 19:51:33 56° W 19:55:54 10° N
SL-08 R/B 3.7 19:48:47 10° N 19:53:35 66° WNW 19:58:18 10° SSW
Cosmos 1980 Rocket 2.5 19:48:44 10° NNW 19:54:19 52° ENE 19:56:48 31° ESE
SPOT 3 Rocket 4.1 19:53:56 30° ESE 19:55:51 42° ENE 20:00:41 10° N
CZ-4 R/B 3.7 19:54:43 10° SW 19:57:14 18° W 19:59:44 10° NW
CZ-4B R/B 3.4 19:58:30 31° ENE 19:58:30 31° ENE 20:01:26 10° N
Cosmos 1782 2.4 19:59:06 57° SE 19:59:26 60° E 20:02:54 10° NNE
Meteor 2-3 Rocket 4.2 19:54:02 10° NNW 19:59:33 60° W 20:03:58 16° S
Cosmos 1850 Rocket 3.9 19:59:00 10° NNW 20:04:11 84° ENE 20:06:17 37° SSE
CZ-4B R/B 4.2 20:02:00 13° S 20:06:50 45° W 20:12:15 10° NNW
Cosmos 1802 Rocket 4.1 20:02:51 10° SSW 20:09:04 75° W 20:15:15 10° N
Terra 3.3 20:07:20 11° SSW 20:11:13 31° W 20:15:24 10° NNW
Chandra Rocket (1) 4.2 19:53:53 10° WSW 20:12:22 38° S 20:15:00 31° SSE
IRS-1C Rocket 4.5 20:10:56 37° ESE 20:12:27 48° ENE 20:17:31 10° N
NOSS 3-3 (C) 3.8 20:15:33 42° ESE 20:15:47 42° ESE 20:21:11 10° NE
Gbstr 26 Del rocket 3.8 20:12:51 10° NW 20:17:34 46° NNE 20:18:53 34° ENE
CZ-2C R/B 4.2 20:23:39 19° NNE 20:23:39 19° NNE 20:24:46 10° N
Cosmos 1743 3.3 20:26:04 10° NNW 20:28:34 40° WNW 20:28:34 40° WNW
Geosat 4.1 20:27:33 10° NE 20:32:22 52° ESE 20:32:22 52° ESE
ISS -2.3 20:29:19 10° W 20:32:28 37° NNW 20:35:05 14° NE
Ariane Rocket 2.9 20:32:21 57° SE 20:33:17 73° ENE 20:38:20 10° N
Meteor 2-12 Rocket 4.5 20:32:26 10° N 20:38:31 76° W 20:40:49 40° S
BREEZE-M DEB (TANK) 3.9 20:40:57 10° WNW 20:44:42 71° SSW 20:47:10 43° SE
Cosmos 2082 Rocket 2.4 20:40:45 18° SSW 20:45:06 70° WNW 20:50:49 10° NNE
Cosmos 2369 3.7 20:39:42 10° NNW 20:45:25 69° ENE 20:46:24 57° ESE
SL-4 R/B 3.3 20:42:05 10° WNW 20:44:44 29° WSW 20:44:44 29° WSW
Cosmos 1437 Rocket 4.4 20:47:58 22° NNE 20:47:58 22° NNE 20:49:28 10° NNE
Cosmos 2322 Rocket 4.0 20:43:43 10° N 20:47:37 19° NE 20:49:17 17° ENE
Cosmos 1891 Rocket 4.4 20:46:58 55° SE 20:48:06 65° E 20:54:08 10° NNE
Cosmos 909 Rocket 4.0 20:41:38 10° SSW 20:48:06 83° WNW 20:54:29 10° NNE
Aureole 3 Rocket 4.4 20:46:05 34° SSW 20:49:26 82° W 20:58:13 10° N
USA 305 4.2 20:47:56 10° NNW 20:51:08 26° NNE 20:51:08 26° NNE
Cosmos 2151 3.6 20:49:42 10° N 20:52:53 45° NE 20:52:53 45° NE
Meteor 1-22 4.5 20:48:25 10° N 20:53:52 82° E 20:54:30 69° SSE
USA 234 3.4 20:49:47 10° ENE 20:55:31 47° ESE 20:55:31 47° ESE
Cosmos 2228 4.4 20:55:36 27° WSW 20:56:48 32° WNW 21:00:32 10° NNW
Okean O Rocket 3.7 20:57:28 17° WSW 20:58:54 19° W 21:02:00 10° NW
Cosmos 1626 Rocket 3.7 20:56:09 10° N 21:00:04 72° NNW 21:00:04 72° NNW
DELTA 2 R/B (1) 3.9 20:58:56 10° WSW 21:03:11 51° SW 21:03:11 51° SW
Cosmos 1992 Rocket 4.2 21:05:58 50° SW 21:07:09 65° WNW 21:12:21 10° NNE
COSMOS 2406 3.1 21:07:29 71° S 21:08:08 86° ESE 21:13:55 10° NNE
CZ-4C R/B 4.4 21:05:11 10° W 21:08:28 20° NW 21:12:21 10° NNE
Meteor 1-20 Rocket 4.0 21:07:58 10° N 21:13:33 87° WSW 21:13:52 80° S
SL-16 R/B 2.6 21:09:09 10° NNW 21:14:39 49° ENE 21:14:58 48° ENE
Helios 1A 4.5 21:11:07 10° NNE 21:13:02 27° NNE 21:13:02 27° NNE
Nadezhda 4 Rocket 4.1 21:12:05 10° N 21:18:04 55° E 21:18:18 54° E
ATLAS 3B R/B 4.0 21:12:12 10° NW 21:18:37 31° WSW 21:20:47 26° SW
CZ-4B R/B 4.4 21:19:07 35° WSW 21:19:22 35° W 21:23:43 10° NNW
Cosmos 2098 Rocket 3.6 21:25:32 68° NNE 21:25:32 68° NNE 21:29:43 10° N
Cosmos 2333 Rocket 2.5 21:21:59 10° NNW 21:27:35 55° ENE 21:27:39 55° ENE
Meteor 1-25 Rocket 4.1 21:26:53 10° NNW 21:32:32 81° W 21:32:32 81° W
Cosmos 1980 Rocket 3.8 21:33:35 10° NW 21:37:51 22° W 21:38:33 22° WSW
Cosmos 2026 Rocket 4.4 21:36:34 10° N 21:42:44 49° ENE 21:42:46 49° E
Cosmos 1464 Rocket 4.1 21:53:24 62° WSW 21:53:50 64° W 21:59:57 10° N
Cosmos 2360 Rocket 2.5 21:59:08 10° NNW 22:04:14 60° NE 22:04:14 60° NE
ALOS 2 4.2 22:06:32 31° NNE 22:06:32 31° NNE 22:09:10 10° N
ARIANE 5 R/B 4.0 22:07:11 35° NNE 22:07:11 35° NNE 22:09:57 10° N
ISS -0.4 22:07:58 10° NW 22:08:14 11° NW 22:08:14 11° NW
Cosmos 1092 Rocket 4.0 22:15:08 10° N 22:20:51 75° NNE 22:20:51 75° NNE
Cosmos 540 Rocket 4.3 22:23:21 47° NNE 22:23:21 47° NNE 22:27:01 10° NNE
Cosmos 2219 Rocket 2.7 22:16:47 10° NNW 22:21:47 52° NE 22:21:47 52° NE
NOSS 3-4 (A) 3.8 22:18:16 10° NNW 22:25:13 78° NE 22:26:01 71° ESE
NOSS 3-4 (C) 3.8 22:18:52 10° NNW 22:25:51 78° NE 22:26:40 70° ESE
Cosmos 2034 Rocket 4.4 22:27:37 53° W 22:27:52 53° W 22:34:07 10° N
Cosmos 2322 Rocket 2.7 22:26:35 10° NNW 22:31:03 55° NW 22:31:03 55° NW
USA 234 3.8 22:32:48 10° NE 22:39:07 53° NNW 22:42:49 25° W
ACS3 Solar Sail 3.5 22:40:23 10° NE 22:44:07 20° E 22:44:07 20° E
Cosmos 1763 Rocket 4.4 22:45:39 45° NW 22:45:39 45° NW 22:50:00 10° N
COSMOS 2428 4.2 22:40:51 10° N 22:45:45 28° NE 22:46:33 27° ENE
CZ-2C R/B 3.7 22:47:16 10° NNE 22:51:56 59° NE 22:51:56 59° NE
Cosmos 1634 Rocket 4.4 22:57:50 54° WNW 22:57:50 54° WNW 23:03:34 10° N
SL-16 R/B 4.0 22:53:59 10° NW 22:56:47 21° WNW 22:56:47 21° WNW
Cosmos 2279 Rocket 4.1 23:01:48 71° NW 23:01:48 71° NW 23:07:34 10° N
SeaSat 1 3.5 23:03:53 42° NNE 23:03:53 42° NNE 23:07:49 10° NNW
Cosmos 2221 4.5 23:09:57 26° N 23:09:57 26° N 23:11:52 10° N
Cosmos 841 Rocket 4.4 23:12:28 43° NE 23:12:28 43° NE 23:16:03 10° NNE
Cosmos 2333 Rocket 4.1 23:07:16 10° NW 23:09:39 18° WNW 23:09:39 18° WNW
CZ-2C R/B 3.1 23:16:22 56° N 23:16:22 56° N 23:20:32 10° N
BREEZE-M DEB (TANK) 4.1 23:13:20 10° WNW 23:19:28 54° N 23:24:49 10° E
Cosmos 2297 Rocket 3.0 23:33:58 42° ENE 23:33:58 42° ENE 23:38:15 10° NE
Aureole 1 Rocket 4.4 23:27:46 10° NNW 23:32:03 48° WNW 23:32:03 48° WNW
Cosmos 2266 Rocket 4.0 23:29:03 10° N 23:34:28 73° NNW 23:34:28 73° NNW
Cosmos 2322 4.0 23:30:23 10° NNW 23:35:16 64° N 23:35:16 64° N
Cosmos 44 4.2 23:34:11 10° NNW 23:38:08 49° NNW 23:38:08 49° NNW
Lacrosse 4 Rocket 4.0 23:46:25 14° ENE 23:46:25 14° ENE 23:47:11 10° ENE
Cosmos 1937 Rocket 4.1 23:41:46 10° NNW 23:45:41 52° N 23:45:41 52° N
Cosmos 2360 Rocket 4.3 23:44:30 10° WNW 23:45:58 14° WNW 23:45:58 14° WNW
Meteor 2-20 4.5 23:48:56 70° NW 23:48:56 70° NW 23:54:39 10° N
Meteor 1-11 Rocket 4.1 23:44:53 10° NNW 23:49:31 57° NW 23:49:31 57° NW
